Theta_e
315 314 313 315 314 314 314 316 319 319 317 316 315 314 314 313 313 311 310 309 309 309
313 314 313 314 314 314 316 318 316 315 315 314 314 313 312 312 312 310 310 309 309 309
314 315 315 314 315 316 315 314 314 313 313 313 313 312 311 310 310 308 307 308 308 309
314 315 315 316 315 314 313 313 313 313 312 312 311 309 308 309 308 307 307 307 307 307
314 316 316 314 311 312 311 312 312 312 310 310 307 306 305 305 305 305 304 305 305 305
317 315 313 311 312 312 313 312 311 311 309 306 305 305 304 303 302 303 303 303 303 303
316 314 314 313 313 311 310 308 308 309 306 306 305 304 303 302 301 302 301 301 301 302
314 314 313 311 309 309 308 308 308 307 305 305 304 303 302 300 300 299 299 299 300 302
314 314 310 309 306 304 304 304 305 305 305 303 303 301 302 299 299 298 297 297 298 300
312 310 307 304 303 302 302 302 302 303 304 302 302 299 299 299 298 297 297 298 298 299
309 305 303 302 302 301 301 301 301 301 302 301 301 299 298 298 298 297 298 299 299 299
305 303 302 301 300 300 300 299 301 300 300 299 299 298 298 297 297 296 297 298 299 300
304 302 301 301 300 300 297 297 300 299 299 299 298 296 296 297 297 296 296 298 298 298
302 301 301 301 299 295 296 298 297 295 296 297 297 296 296 296 297 296 296 296 297 298
Wind_Speed
10 8 6 5 4 3 3 2 2 4 4 5 5 4 4 3 3 3 3 4 4 2
6 9 7 6 5 3 4 4 5 5 5 5 5 5 4 3 4 4 3 4 4 3
7 6 7 6 6 6 5 5 5 4 4 5 4 5 5 4 5 5 4 4 6 5
7 6 7 6 6 5 4 5 7 4 4 5 5 6 5 5 6 6 6 7 7 8
8 8 8 7 7 5 5 4 5 4 5 5 5 5 6 6 6 7 7 7 7 8
9 9 9 9 6 6 5 5 4 4 6 5 5 5 5 5 6 6 6 6 7 7
8 9 9 8 6 7 4 6 5 4 5 5 5 5 6 6 7 6 6 6 7 7
9 9 9 8 7 6 4 3 5 5 5 5 5 5 5 6 6 6 7 8 8 8
11 9 8 9 5 7 4 3 4 4 5 5 4 7 9 7 5 5 6 7 8 8
11 10 9 7 6 6 4 3 4 4 4 4 3 7 8 8 5 6 7 7 7 7
13 11 8 7 6 5 3 4 4 4 4 3 3 7 7 7 6 5 5 6 6 6
13 12 9 7 6 4 4 3 2 3 4 4 4 6 6 5 5 5 6 6 7 8
12 10 9 7 6 3 3 3 5 5 4 6 4 5 5 5 3 5 5 6 7 9
10 10 9 7 4 5 4 6 5 5 4 3 3 3 5 5 3 3 4 4 6 5
Wind_Direction
159 156 150 148 136 147 130 123 91 85 77 62 49 39 31 48 63 62 53 16 39 332
143 144 156 138 127 129 127 103 78 68 60 51 39 31 28 37 36 37 29 15 6 355
153 140 129 131 128 124 114 103 90 80 62 46 40 40 39 34 19 33 15 9 5 348
144 115 100 109 109 107 98 101 98 87 72 59 35 28 41 32 30 26 11 9 2 348
109 112 119 117 115 109 99 101 108 93 72 68 68 52 44 34 24 24 16 4 2 355
128 129 126 123 130 114 117 92 78 76 80 78 66 51 38 32 24 24 25 13 1 349
136 131 131 125 120 115 120 113 112 88 97 90 73 54 36 32 27 28 17 1 355 345
131 126 122 116 110 96 105 116 110 110 91 83 76 52 46 40 35 22 4 354 356 351
137 132 123 119 139 121 129 125 114 107 108 93 81 60 51 59 40 16 2 350 344 344
138 133 135 137 129 127 139 127 97 86 102 95 81 62 50 49 33 17 6 357 347 342
143 138 137 136 133 130 123 120 110 94 99 98 76 59 44 43 23 12 3 353 346 333
144 140 142 135 136 138 127 112 109 117 112 90 59 30 37 48 15 15 359 354 354 357
138 137 138 143 132 107 101 118 125 104 79 88 74 17 53 48 28 15 5 353 353 353
140 142 141 125 109 127 118 117 118 113 100 89 76 30 36 39 28 17 351 351 352 345